| time (UTC) | temp C | wind direction | speed KPH | gust KPH | rain 1hr cm | rain 24hr cm | rain mn cm | humidity % | barometer mb |
| 20260507074506 | 10 | 0 | 0.0 | 0.0 | 0.00 | 1.47 | 0.00 | 92 | 1003.0 |
| 20260507074006 | 10 | 0 | 0.0 | 0.0 | 0.00 | 1.47 | 0.00 | 92 | 1002.8 |
| 20260507073506 | 10 | 0 | 0.0 | 0.0 | 0.00 | 1.47 | 0.00 | 93 | 1002.6 |
| 20260507073006 | 10 | 0 | 0.0 | 0.0 | 0.00 | 1.47 | 0.00 | 93 | 1002.9 |
| 20260507071506 | 10 | 0 | 0.0 | 0.0 | 0.00 | 1.47 | 0.00 | 92 | 1003.0 |
| 20260507071006 | 10 | 0 | 0.0 | 0.0 | 0.00 | 1.47 | 0.00 | 92 | 1002.9 |
| 20260507070506 | 10 | 0 | 0.0 | 0.0 | 0.00 | 1.47 | 0.00 | 91 | 1002.6 |
| 20260507070010 | 10 | 0 | 0.0 | 0.0 | 0.00 | 1.47 | 0.00 | 92 | 1002.2 |
| 20260507064506 | 10 | 0 | 0.0 | 0.0 | 0.00 | 1.47 | 0.00 | 92 | 1002.4 |
| 20260507064006 | 10 | 0 | 0.0 | 0.0 | 0.00 | 1.47 | 0.00 | 92 | 1002.2 |
| 20260507063505 | 10 | 0 | 0.0 | 0.0 | 0.00 | 1.47 | 0.00 | 93 | 1002.4 |
| 20260507063007 | 10 | 0 | 0.0 | 0.0 | 0.00 | 1.47 | 0.00 | 93 | 1002.5 |
| 20260507061505 | 10 | 0 | 0.0 | 0.0 | 0.00 | 1.47 | 0.00 | 93 | 1002.5 |
| 20260507061005 | 10 | 0 | 0.0 | 0.0 | 0.00 | 1.47 | 0.00 | 94 | 1002.4 |
| 20260507060006 | 10 | 0 | 0.0 | 0.0 | 0.00 | 1.47 | 0.00 | 93 | 1002.4 |
| 20260507054506 | 11 | 0 | 0.0 | 0.0 | 0.00 | 1.47 | 0.00 | 95 | 1002.4 |
| 20260507054006 | 11 | 0 | 0.0 | 0.0 | 0.00 | 1.47 | 0.00 | 95 | 1002.4 |
| 20260507053505 | 11 | 0 | 0.0 | 0.0 | 0.00 | 1.47 | 0.00 | 94 | 1002.1 |
| 20260507053006 | 11 | 0 | 0.0 | 0.0 | 0.00 | 1.47 | 0.00 | 94 | 1001.8 |
| 20260507051505 | 11 | 0 | 0.0 | 0.0 | 0.00 | 1.47 | 0.00 | 96 | 1002.2 |
| 20260507051006 | 11 | 0 | 0.0 | 0.0 | 0.00 | 1.47 | 0.00 | 95 | 1002.2 |
| 20260507050505 | 11 | 0 | 0.0 | 0.0 | 0.00 | 1.47 | 0.00 | 96 | 1002.2 |
| 20260507050006 | 11 | 0 | 0.0 | 0.0 | 0.00 | 1.47 | 0.00 | 96 | 1002.1 |
| 20260507044505 | 12 | 0 | 0.0 | 0.0 | 0.69 | 1.47 | 0.00 | 97 | 1002.0 |
| 20260507044006 | 12 | 0 | 0.0 | 0.0 | 0.69 | 1.47 | 0.00 | 98 | 1002.0 |
| 20260507043505 | 12 | 0 | 0.0 | 0.0 | 0.69 | 1.47 | 0.00 | 98 | 1002.0 |
| 20260507043005 | 12 | 0 | 0.0 | 0.0 | 0.69 | 1.47 | 0.00 | 98 | 1001.9 |
| 20260507041506 | 12 | 0 | 0.0 | 0.0 | 0.69 | 1.47 | 0.00 | 98 | 1001.5 |
| 20260507040505 | 13 | 0 | 0.0 | 0.0 | 0.69 | 1.47 | 0.00 | 99 | 1001.5 |
| 20260507040005 | 13 | 0 | 0.0 | 0.0 | 0.00 | 0.81 | 0.00 | 99 | 1001.6 |
| 20260507034505 | 13 | 0 | 0.0 | 0.0 | 0.00 | 0.81 | 0.69 | 99 | 1001.7 |
| 20260507034005 | 12 | 0 | 0.0 | 0.0 | 0.00 | 0.81 | 0.69 | 99 | 1001.9 |
| 20260507033505 | 12 | 0 | 0.0 | 0.0 | 0.00 | 0.81 | 0.69 | 99 | 1001.8 |
| 20260507033005 | 11 | 0 | 0.0 | 0.0 | 0.00 | 0.81 | 0.69 | 99 | 1001.7 |
| 20260507031005 | 11 | 0 | 0.0 | 0.0 | 0.00 | 0.81 | 0.69 | 99 | 1001.2 |
| 20260507030505 | 11 | 0 | 0.0 | 0.0 | 0.00 | 0.79 | 0.69 | 99 | 1001.1 |
| 20260507030005 | 11 | 0 | 0.0 | 0.0 | 0.00 | 0.79 | 0.69 | 99 | 1001.1 |
| 20260507024505 | 10 | 0 | 0.0 | 0.0 | 0.00 | 0.79 | 0.69 | 99 | 1001.3 |
| 20260507024004 | 11 | 0 | 0.0 | 0.0 | 0.00 | 0.79 | 0.69 | 99 | 1001.3 |
| 20260507023505 | 11 | 0 | 0.0 | 0.0 | 0.00 | 0.79 | 0.69 | 99 | 1001.3 |
| 20260507023005 | 11 | 0 | 0.0 | 0.0 | 0.00 | 0.79 | 0.69 | 99 | 1001.4 |
| 20260507021505 | 11 | 0 | 0.0 | 0.0 | 0.00 | 0.79 | 0.69 | 99 | 1001.5 |
| 20260507021005 | 11 | 0 | 0.0 | 0.0 | 0.00 | 0.79 | 0.69 | 99 | 1001.5 |
| 20260507020505 | 11 | 0 | 0.0 | 0.0 | 0.00 | 0.79 | 0.69 | 99 | 1001.6 |
| 20260507020004 | 11 | 0 | 0.0 | 0.0 | 0.00 | 0.79 | 0.69 | 99 | 1001.7 |
| 20260507014504 | 11 | 0 | 0.0 | 0.0 | 0.00 | 0.79 | 0.69 | 99 | 1001.7 |
| 20260507014005 | 11 | 0 | 0.0 | 0.0 | 0.00 | 0.79 | 0.69 | 99 | 1001.7 |
| 20260507013505 | 11 | 0 | 0.0 | 0.0 | 0.00 | 0.79 | 0.69 | 99 | 1001.8 |
| 20260507011505 | 11 | 0 | 0.0 | 0.0 | 0.00 | 0.79 | 0.69 | 99 | 1001.9 |
| 20260507010505 | 11 | 0 | 0.0 | 0.0 | 0.00 | 0.79 | 0.69 | 99 | 1001.9 |
| 20260507010004 | 11 | 0 | 0.0 | 0.0 | 0.03 | 0.79 | 0.69 | 99 | 1001.9 |
| 20260507004504 | 11 | 0 | 0.0 | 0.0 | 0.03 | 0.79 | 0.69 | 99 | 1002.0 |
| 20260507004004 | 11 | 0 | 0.0 | 0.0 | 0.03 | 0.79 | 0.69 | 99 | 1002.0 |
| 20260507003505 | 11 | 0 | 0.0 | 0.0 | 0.03 | 0.79 | 0.69 | 99 | 1001.9 |
| 20260507003004 | 11 | 0 | 0.0 | 0.0 | 0.03 | 0.79 | 0.69 | 99 | 1002.0 |
| 20260507001504 | 11 | 0 | 0.0 | 0.0 | 0.03 | 0.79 | 0.69 | 99 | 1002.0 |
| 20260507000504 | 11 | 0 | 0.0 | 0.0 | 0.03 | 0.79 | 0.66 | 99 | 1001.9 |
| 20260507000004 | 11 | 0 | 0.0 | 0.0 | 0.00 | 0.76 | 0.66 | 99 | 1001.9 |
| 20260506234505 | 11 | 0 | 0.0 | 0.0 | 0.00 | 0.76 | 0.66 | 99 | 1002.1 |
| 20260506234004 | 11 | 0 | 0.0 | 0.0 | 0.00 | 0.76 | 0.66 | 99 | 1002.1 |
| 20260506233503 | 11 | 0 | 0.0 | 0.0 | 0.00 | 0.76 | 0.66 | 99 | 1002.2 |
| 20260506233004 | 11 | 0 | 0.0 | 0.0 | 0.00 | 0.76 | 0.66 | 99 | 1002.0 |
| 20260506230504 | 11 | 0 | 0.0 | 0.0 | 0.10 | 0.76 | 0.64 | 99 | 1002.2 |
| 20260506230004 | 11 | 0 | 0.0 | 0.0 | 0.13 | 0.76 | 0.66 | 99 | 1002.2 |
| 20260506224503 | 11 | 0 | 0.0 | 0.0 | 0.13 | 0.76 | 0.66 | 99 | 1002.3 |
| 20260506223504 | 11 | 0 | 0.0 | 0.0 | 0.15 | 0.76 | 0.66 | 99 | 1002.5 |
| 20260506223004 | 11 | 0 | 0.0 | 0.0 | 0.20 | 0.76 | 0.66 | 99 | 1002.4 |
| 20260506221005 | 11 | 0 | 0.0 | 0.0 | 0.18 | 0.69 | 0.58 | 99 | 1002.5 |
| 20260506220509 | 11 | 0 | 0.0 | 0.0 | 0.18 | 0.64 | 0.53 | 99 | 1002.6 |
| 20260506220010 | 11 | 0 | 0.0 | 0.0 | 0.18 | 0.64 | 0.53 | 99 | 1002.7 |
| 20260506214509 | 12 | 0 | 0.0 | 0.0 | 0.23 | 0.61 | 0.53 | 99 | 1002.7 |
| 20260506213510 | 12 | 0 | 0.0 | 0.0 | 0.23 | 0.58 | 0.51 | 99 | 1003.0 |
| 20260506213010 | 12 | 0 | 0.0 | 0.0 | 0.20 | 0.53 | 0.46 | 99 | 1003.0 |
| 20260506211009 | 12 | 0 | 0.0 | 0.0 | 0.23 | 0.48 | 0.41 | 99 | 1003.1 |
| 20260506210510 | 12 | 0 | 0.0 | 0.0 | 0.20 | 0.43 | 0.36 | 99 | 1003.0 |
| 20260506210010 | 12 | 0 | 0.0 | 0.0 | 0.20 | 0.43 | 0.36 | 99 | 1003.1 |
| 20260506204509 | 12 | 0 | 0.0 | 0.0 | 0.13 | 0.38 | 0.30 | 99 | 1003.2 |
| 20260506204009 | 13 | 0 | 0.0 | 0.0 | 0.15 | 0.36 | 0.28 | 99 | 1003.2 |
| 20260506203510 | 13 | 0 | 0.0 | 0.0 | 0.15 | 0.33 | 0.28 | 99 | 1003.2 |
| 20260506201509 | 13 | 0 | 0.0 | 0.0 | 0.05 | 0.25 | 0.18 | 99 | 1003.1 |
| 20260506201009 | 13 | 0 | 0.0 | 0.0 | 0.05 | 0.23 | 0.18 | 99 | 1003.1 |
| 20260506200009 | 13 | 0 | 0.0 | 0.0 | 0.10 | 0.23 | 0.15 | 99 | 1003.0 |
| 20260506194509 | 12 | 0 | 0.0 | 0.0 | 0.15 | 0.23 | 0.18 | 99 | 1003.5 |
| 20260506194009 | 12 | 0 | 0.0 | 0.0 | 0.13 | 0.18 | 0.13 | 99 | 1004.1 |
| 20260506193509 | 13 | 0 | 0.0 | 0.0 | 0.13 | 0.18 | 0.13 | 97 | 1003.6 |
| 20260506193009 | 13 | 0 | 0.0 | 0.0 | 0.13 | 0.15 | 0.13 | 97 | 1003.6 |
| 20260506191509 | 13 | 0 | 0.0 | 0.0 | 0.13 | 0.13 | 0.13 | 95 | 1003.9 |
| 20260506191009 | 13 | 0 | 0.0 | 0.0 | 0.10 | 0.10 | 0.10 | 94 | 1004.1 |
| 20260506184509 | 13 | 0 | 0.0 | 0.0 | 0.03 | 0.03 | 0.03 | 89 | 1003.9 |
| 20260506184009 | 13 | 0 | 0.0 | 0.0 | 0.03 | 0.03 | 0.03 | 87 | 1003.9 |
| 20260506183509 | 13 | 0 | 0.0 | 0.0 | 0.00 | 0.00 | 0.00 | 86 | 1003.6 |
| 20260506183009 | 13 | 0 | 0.0 | 0.0 | 0.00 | 0.00 | 0.00 | 84 | 1003.5 |
| 20260506181509 | 13 | 0 | 0.0 | 0.0 | 0.00 | 0.00 | 0.00 | 84 | 1003.5 |
| 20260506181009 | 13 | 0 | 0.0 | 0.0 | 0.00 | 0.00 | 0.00 | 84 | 1003.5 |
| 20260506180508 | 13 | 0 | 0.0 | 0.0 | 0.00 | 0.00 | 0.00 | 84 | 1003.5 |
| 20260506180009 | 13 | 0 | 0.0 | 0.0 | 0.00 | 0.00 | 0.00 | 84 | 1003.6 |
| 20260506174509 | 14 | 0 | 0.0 | 0.0 | 0.00 | 0.00 | 0.00 | 83 | 1003.8 |
| 20260506174008 | 14 | 0 | 0.0 | 0.0 | 0.00 | 0.00 | 0.00 | 82 | 1003.8 |
| 20260506173509 | 14 | 0 | 0.0 | 0.0 | 0.00 | 0.00 | 0.00 | 81 | 1003.9 |
| 20260506173009 | 14 | 0 | 0.0 | 0.0 | 0.00 | 0.00 | 0.00 | 80 | 1003.9 |
| 20260506171508 | 14 | 0 | 0.0 | 0.0 | 0.00 | 0.00 | 0.00 | 82 | 1004.0 |
| 20260506171008 | 14 | 0 | 0.0 | 0.0 | 0.00 | 0.00 | 0.00 | 82 | 1004.1 |
| 20260506170509 | 15 | 0 | 0.0 | 0.0 | 0.00 | 0.00 | 0.00 | 81 | 1004.2 |
| 20260506170009 | 15 | 0 | 0.0 | 0.0 | 0.00 | 0.00 | 0.00 | 81 | 1004.3 |
| 20260506164508 | 16 | 0 | 0.0 | 0.0 | 0.00 | 0.00 | 0.00 | 80 | 1004.4 |
| 20260506164008 | 16 | 0 | 0.0 | 0.0 | 0.00 | 0.00 | 0.00 | 79 | 1004.5 |
| 20260506163008 | 16 | 0 | 0.0 | 0.0 | 0.00 | 0.00 | 0.00 | 79 | 1004.6 |
| 20260506161008 | 16 | 0 | 0.0 | 0.0 | 0.00 | 0.00 | 0.00 | 79 | 1005.1 |
| 20260506160508 | 16 | 0 | 0.0 | 0.0 | 0.00 | 0.00 | 0.00 | 80 | 1005.2 |
| 20260506160008 | 16 | 0 | 0.0 | 0.0 | 0.00 | 0.00 | 0.00 | 80 | 1005.3 |
| 20260506154508 | 16 | 0 | 0.0 | 0.0 | 0.00 | 0.00 | 0.00 | 80 | 1005.4 |
| 20260506154008 | 16 | 0 | 0.0 | 0.0 | 0.00 | 0.00 | 0.00 | 81 | 1005.5 |
| 20260506153508 | 15 | 0 | 0.0 | 0.0 | 0.00 | 0.00 | 0.00 | 82 | 1005.6 |
| 20260506153008 | 15 | 0 | 0.0 | 0.0 | 0.00 | 0.00 | 0.00 | 82 | 1005.4 |
| 20260506151508 | 15 | 0 | 0.0 | 0.0 | 0.00 | 0.00 | 0.00 | 83 | 1005.7 |
| 20260506151008 | 15 | 0 | 0.0 | 0.0 | 0.00 | 0.00 | 0.00 | 83 | 1005.6 |
| 20260506150508 | 15 | 0 | 0.0 | 0.0 | 0.00 | 0.00 | 0.00 | 84 | 1005.5 |
| 20260506150008 | 15 | 0 | 0.0 | 0.0 | 0.00 | 0.00 | 0.00 | 84 | 1005.4 |
| 20260506144507 | 15 | 0 | 0.0 | 0.0 | 0.00 | 0.00 | 0.00 | 84 | 1005.4 |
| 20260506144008 | 15 | 0 | 0.0 | 0.0 | 0.00 | 0.00 | 0.00 | 84 | 1005.4 |
| 20260506143008 | 15 | 0 | 0.0 | 0.0 | 0.00 | 0.00 | 0.00 | 83 | 1005.2 |
| 20260506141508 | 14 | 0 | 0.0 | 0.0 | 0.00 | 0.00 | 0.00 | 85 | 1005.3 |
| 20260506140507 | 14 | 0 | 0.0 | 0.0 | 0.00 | 0.00 | 0.00 | 87 | 1005.5 |
| 20260506140008 | 13 | 0 | 0.0 | 0.0 | 0.00 | 0.00 | 0.00 | 87 | 1005.6 |
| 20260506134008 | 13 | 0 | 0.0 | 0.0 | 0.00 | 0.00 | 0.00 | 87 | 1005.8 |
| 20260506133507 | 13 | 0 | 0.0 | 0.0 | 0.00 | 0.00 | 0.00 | 87 | 1005.7 |
| 20260506133007 | 13 | 0 | 0.0 | 0.0 | 0.00 | 0.00 | 0.00 | 88 | 1005.8 |
| 20260506131508 | 13 | 0 | 0.0 | 0.0 | 0.00 | 0.00 | 0.00 | 88 | 1005.8 |
| 20260506130007 | 13 | 0 | 0.0 | 0.0 | 0.00 | 0.00 | 0.00 | 88 | 1005.7 |
| 20260506124007 | 12 | 0 | 0.0 | 0.0 | 0.00 | 0.00 | 0.00 | 88 | 1005.8 |
| 20260506123507 | 12 | 0 | 0.0 | 0.0 | 0.00 | 0.00 | 0.00 | 89 | 1005.8 |
| 20260506123008 | 12 | 0 | 0.0 | 0.0 | 0.00 | 0.00 | 0.00 | 89 | 1005.9 |
| 20260506121508 | 12 | 0 | 0.0 | 0.0 | 0.00 | 0.00 | 0.00 | 89 | 1006.0 |
| 20260506121007 | 12 | 0 | 0.0 | 0.0 | 0.00 | 0.00 | 0.00 | 90 | 1006.1 |
| 20260506120507 | 12 | 0 | 0.0 | 0.0 | 0.00 | 0.00 | 0.00 | 89 | 1006.1 |
| 20260506120007 | 12 | 0 | 0.0 | 0.0 | 0.00 | 0.00 | 0.00 | 89 | 1006.1 |
| 20260506114508 | 12 | 0 | 0.0 | 0.0 | 0.00 | 0.00 | 0.00 | 91 | 1006.4 |
| 20260506114007 | 12 | 0 | 0.0 | 0.0 | 0.00 | 0.00 | 0.00 | 91 | 1006.4 |
| 20260506113506 | 11 | 0 | 0.0 | 0.0 | 0.00 | 0.00 | 0.00 | 91 | 1006.3 |
| 20260506113007 | 11 | 0 | 0.0 | 0.0 | 0.00 | 0.00 | 0.00 | 92 | 1006.2 |
| 20260506111507 | 11 | 0 | 0.0 | 0.0 | 0.00 | 0.00 | 0.00 | 93 | 1006.2 |
| 20260506111007 | 11 | 0 | 0.0 | 0.0 | 0.00 | 0.00 | 0.00 | 93 | 1006.2 |
| 20260506110507 | 11 | 0 | 0.0 | 0.0 | 0.00 | 0.00 | 0.00 | 92 | 1006.4 |
| 20260506104507 | 11 | 0 | 0.0 | 0.0 | 0.00 | 0.00 | 0.00 | 93 | 1006.4 |
| 20260506104007 | 11 | 0 | 0.0 | 0.0 | 0.00 | 0.00 | 0.00 | 93 | 1006.4 |
| 20260506103507 | 11 | 0 | 0.0 | 0.0 | 0.00 | 0.00 | 0.00 | 93 | 1006.2 |
| 20260506101507 | 10 | 0 | 0.0 | 0.0 | 0.00 | 0.00 | 0.00 | 94 | 1006.2 |
| 20260506101006 | 10 | 0 | 0.0 | 0.0 | 0.00 | 0.00 | 0.00 | 94 | 1006.1 |
| 20260506100506 | 10 | 0 | 0.0 | 0.0 | 0.00 | 0.00 | 0.00 | 94 | 1006.1 |
| 20260506100007 | 10 | 0 | 0.0 | 0.0 | 0.00 | 0.00 | 0.00 | 94 | 1006.2 |
| 20260506093507 | 10 | 0 | 0.0 | 0.0 | 0.00 | 0.00 | 0.00 | 95 | 1006.2 |
| 20260506091507 | 10 | 0 | 0.0 | 0.0 | 0.00 | 0.00 | 0.00 | 94 | 1006.0 |
| 20260506091007 | 10 | 0 | 0.0 | 0.0 | 0.00 | 0.00 | 0.00 | 94 | 1006.1 |
| 20260506090507 | 10 | 0 | 0.0 | 0.0 | 0.00 | 0.00 | 0.00 | 94 | 1006.1 |
| 20260506090006 | 10 | 0 | 0.0 | 0.0 | 0.00 | 0.00 | 0.00 | 94 | 1006.1 |
| 20260506084006 | 10 | 0 | 0.0 | 0.0 | 0.00 | 0.00 | 0.00 | 93 | 1006.0 |
| 20260506083507 | 10 | 0 | 0.0 | 0.0 | 0.00 | 0.00 | 0.00 | 93 | 1006.0 |
| 20260506083006 | 10 | 0 | 0.0 | 0.0 | 0.00 | 0.00 | 0.00 | 93 | 1006.0 |
| 20260506080507 | 10 | 0 | 0.0 | 0.0 | 0.00 | 0.00 | 0.00 | 91 | 1006.0 |